When you browse on this site, cookies collect data to enhance your experience and personalize the content and advertising you see.
Visit our Privacy Policy to learn more. By continuing to use the site, you agree to this use of cookies and data.
  • în România
  • Lista ţărilor
  • Pe 7 zile
  • Temperatura apei
  • Hartă satelitară
  • Meteo pe hartă
  • Widget-uri
  • user-avatar
    Intrare

    Meteo pe oră la Igls

    Astăzi, 10 Decembrie, Luni

    Timp Temperatura Precipitaţii Vânt Presiune Umiditate
    00:00 +1°C° 1.9 mm 3 m/s 680 mmHg 95%
    01:00 +1°C° 0 mm 3 m/s 680 mmHg 95%
    02:00 +1°C° 1.2 mm 3 m/s 681 mmHg 95%
    03:00 +1°C° 1.2 mm 3 m/s 681 mmHg 94%
    04:00 0°C° 1.2 mm 3 m/s 681 mmHg 93%
    05:00 0°C° 0.6 mm 3 m/s 682 mmHg 93%
    06:00 -1°C° 0.6 mm 4 m/s 682 mmHg 93%
    07:00 -1°C° 0 mm 3 m/s 682 mmHg 94%
    08:00 -1°C° 0.4 mm 3 m/s 683 mmHg 92%
    09:00 -1°C° 0.4 mm 3 m/s 683 mmHg 91%
    10:00 -2°C° 0.4 mm 4 m/s 683 mmHg 89%
    11:00 -2°C° 0.8 mm 4 m/s 683 mmHg 89%
    12:00 -1°C° 0.8 mm 3 m/s 684 mmHg 88%
    13:00 0°C° 0.8 mm 3 m/s 684 mmHg 88%
    14:00 -1°C° 0.8 mm 3 m/s 684 mmHg 89%
    15:00 -1°C° 0.8 mm 3 m/s 684 mmHg 90%
    16:00 -1°C° 0.8 mm 3 m/s 684 mmHg 91%
    17:00 -1°C° 0.8 mm 2 m/s 684 mmHg 92%
    18:00 -2°C° 0.8 mm 2 m/s 684 mmHg 93%
    19:00 -2°C° 0.8 mm 2 m/s 684 mmHg 94%
    20:00 -2°C° 1.1 mm 3 m/s 684 mmHg 94%
    21:00 -2°C° 1.1 mm 3 m/s 684 mmHg 94%
    22:00 -2°C° 1.1 mm 3 m/s 684 mmHg 95%
    23:00 -2°C° 1.6 mm 3 m/s 684 mmHg 95%

    Mâine, 11 Decembrie, Marţi

    Timp Temperatura Precipitaţii Vânt Presiune Umiditate
    00:00 -2°C° 1.6 mm 3 m/s 684 mmHg 95%
    01:00 -2°C° 1.6 mm 3 m/s 684 mmHg 96%
    02:00 -4°C° 0.5 mm 3 m/s 684 mmHg 96%
    03:00 -4°C° 0.5 mm 3 m/s 684 mmHg 95%
    04:00 -5°C° 0.5 mm 3 m/s 684 mmHg 95%
    05:00 -4°C° 0.4 mm 2 m/s 684 mmHg 95%
    06:00 -4°C° 0.4 mm 2 m/s 684 mmHg 95%
    07:00 -4°C° 0.4 mm 2 m/s 684 mmHg 94%
    08:00 -4°C° 0.4 mm 2 m/s 685 mmHg 93%
    09:00 -5°C° 0.4 mm 3 m/s 685 mmHg 92%
    10:00 -4°C° 0.4 mm 3 m/s 685 mmHg 91%
    11:00 -4°C° 0.3 mm 3 m/s 685 mmHg 89%
    12:00 -4°C° 0.3 mm 3 m/s 685 mmHg 87%
    13:00 -2°C° 0.3 mm 3 m/s 685 mmHg 86%
    14:00 -3°C° 0.2 mm 2 m/s 684 mmHg 87%
    15:00 -3°C° 0.2 mm 2 m/s 684 mmHg 89%
    16:00 -4°C° 0.2 mm 2 m/s 684 mmHg 91%
    17:00 -5°C° 0.1 mm 2 m/s 684 mmHg 91%
    18:00 -6°C° 0.1 mm 2 m/s 685 mmHg 92%
    19:00 -7°C° 0.1 mm 2 m/s 685 mmHg 92%
    20:00 -7°C° 0 mm 2 m/s 685 mmHg 91%
    21:00 -8°C° 0 mm 2 m/s 684 mmHg 90%
    22:00 -8°C° 0 mm 2 m/s 684 mmHg 89%
    23:00 -9°C° 0 mm 2 m/s 684 mmHg 89%

    Poimâine, 12 Decembrie, Miercuri

    Timp Temperatura Precipitaţii Vânt Presiune Umiditate
    00:00 -9°C° 0 mm 2 m/s 684 mmHg 88%
    01:00 -9°C° 0 mm 2 m/s 684 mmHg 88%
    02:00 -9°C° 0 mm 2 m/s 684 mmHg 88%
    03:00 -10°C° 0 mm 2 m/s 684 mmHg 88%
    04:00 -10°C° 0 mm 2 m/s 684 mmHg 88%
    05:00 -10°C° 0 mm 2 m/s 684 mmHg 88%
    06:00 -10°C° 0 mm 2 m/s 683 mmHg 88%
    07:00 -10°C° 0 mm 2 m/s 683 mmHg 88%
    08:00 -7°C° 0 mm 1 m/s 684 mmHg 87%
    09:00 -6°C° 0 mm 1 m/s 684 mmHg 85%
    10:00 -3°C° 0 mm 1 m/s 684 mmHg 84%
    11:00 -2°C° 0 mm 1 m/s 684 mmHg 80%
    12:00 -1°C° 0 mm 1 m/s 683 mmHg 76%
    13:00 0°C° 0 mm 1 m/s 683 mmHg 72%
    14:00 -1°C° 0 mm 1 m/s 682 mmHg 78%
    15:00 -2°C° 0 mm 1 m/s 682 mmHg 84%
    16:00 -4°C° 0 mm 1 m/s 681 mmHg 89%
    17:00 -6°C° 0 mm 1 m/s 681 mmHg 89%
    18:00 -7°C° 0 mm 1 m/s 681 mmHg 90%
    19:00 -8°C° 0 mm 1 m/s 681 mmHg 90%
    20:00 -8°C° 0 mm 1 m/s 681 mmHg 87%
    21:00 -9°C° 0 mm 1 m/s 681 mmHg 85%
    22:00 -9°C° 0 mm 1 m/s 681 mmHg 83%
    23:00 -9°C° 0 mm 1 m/s 681 mmHg 81%

    13 Decembrie, Joi

    Timp Temperatura Precipitaţii Vânt Presiune Umiditate
    00:00 -9°C° 0 mm 1 m/s 681 mmHg 80%
    01:00 -9°C° 0 mm 1 m/s 681 mmHg 78%
    02:00 -10°C° 0 mm 1 m/s 681 mmHg 77%
    03:00 -10°C° 0 mm 1 m/s 680 mmHg 76%
    04:00 -10°C° 0 mm 1 m/s 680 mmHg 75%
    05:00 -10°C° 0 mm 1 m/s 680 mmHg 74%
    06:00 -10°C° 0 mm 1 m/s 679 mmHg 73%
    07:00 -10°C° 0 mm 1 m/s 679 mmHg 71%
    08:00 -8°C° 0 mm 1 m/s 679 mmHg 71%
    09:00 -7°C° 0 mm 1 m/s 679 mmHg 71%
    10:00 -4°C° 0 mm 1 m/s 679 mmHg 71%
    11:00 -2°C° 0 mm 1 m/s 679 mmHg 70%
    12:00 -1°C° 0 mm 1 m/s 679 mmHg 69%
    13:00 +1°C° 0 mm 1 m/s 679 mmHg 67%
    14:00 0°C° 0 mm 1 m/s 679 mmHg 71%
    15:00 -2°C° 0 mm 1 m/s 678 mmHg 75%
    16:00 -3°C° 0 mm 1 m/s 678 mmHg 78%
    17:00 -6°C° 0 mm 2 m/s 678 mmHg 76%
    18:00 -7°C° 0 mm 2 m/s 678 mmHg 74%
    19:00 -8°C° 0 mm 2 m/s 678 mmHg 71%
    20:00 -8°C° 0 mm 2 m/s 678 mmHg 70%
    21:00 -7°C° 0 mm 2 m/s 679 mmHg 70%
    22:00 -7°C° 0 mm 2 m/s 679 mmHg 69%
    23:00 -6°C° 0 mm 2 m/s 679 mmHg 69%

    14 Decembrie, Vineri

    Timp Temperatura Precipitaţii Vânt Presiune Umiditate
    00:00 -6°C° 0 mm 2 m/s 679 mmHg 69%
    01:00 -6°C° 0 mm 2 m/s 679 mmHg 70%
    02:00 -5°C° 0 mm 2 m/s 680 mmHg 70%
    03:00 -5°C° 0 mm 2 m/s 680 mmHg 71%
    04:00 -4°C° 0 mm 2 m/s 680 mmHg 72%
    05:00 -4°C° 0 mm 2 m/s 681 mmHg 72%
    06:00 -2°C° 0 mm 1 m/s 681 mmHg 72%
    07:00 -1°C° 0 mm 1 m/s 681 mmHg 72%
    08:00 0°C° 0 mm 1 m/s 682 mmHg 72%
    09:00 +1°C° 0 mm 1 m/s 683 mmHg 72%
    10:00 +2°C° 0 mm 1 m/s 683 mmHg 73%
    11:00 +3°C° 0 mm 1 m/s 684 mmHg 74%
    12:00 +3°C° 0 mm 1 m/s 684 mmHg 74%
    13:00 +4°C° 0 mm 1 m/s 684 mmHg 75%
    14:00 +3°C° 0 mm 1 m/s 684 mmHg 79%
    15:00 +3°C° 0 mm 1 m/s 685 mmHg 82%
    16:00 +2°C° 0 mm 1 m/s 685 mmHg 86%
    17:00 +1°C° 0 mm 1 m/s 686 mmHg 86%
    18:00 +1°C° 0 mm 1 m/s 686 mmHg 86%
    19:00 0°C° 0 mm 1 m/s 687 mmHg 86%
    20:00 0°C° 0 mm 1 m/s 687 mmHg 85%
    21:00 -1°C° 0 mm 1 m/s 687 mmHg 84%
    22:00 -2°C° 0 mm 1 m/s 688 mmHg 83%
    23:00 -2°C° 0 mm 1 m/s 688 mmHg 82%

    15 Decembrie, Sâmbătă

    Timp Temperatura Precipitaţii Vânt Presiune Umiditate
    00:00 -2°C° 0 mm 1 m/s 688 mmHg 81%
    01:00 -2°C° 0 mm 1 m/s 688 mmHg 80%
    02:00 -2°C° 0 mm 1 m/s 688 mmHg 80%
    03:00 -2°C° 0 mm 1 m/s 689 mmHg 80%
    04:00 -2°C° 0 mm 1 m/s 689 mmHg 80%
    05:00 -2°C° 0 mm 1 m/s 689 mmHg 81%
    06:00 -2°C° 0 mm 1 m/s 690 mmHg 83%
    07:00 -2°C° 0 mm 1 m/s 690 mmHg 84%
    08:00 -1°C° 0 mm 1 m/s 690 mmHg 83%
    09:00 +1°C° 0 mm 1 m/s 690 mmHg 82%
    10:00 +2°C° 0 mm 1 m/s 691 mmHg 82%
    11:00 +3°C° 0 mm 1 m/s 690 mmHg 81%
    12:00 +4°C° 0 mm 1 m/s 690 mmHg 81%
    13:00 +5°C° 0 mm 0 m/s 690 mmHg 81%
    14:00 +3°C° 0 mm 0 m/s 690 mmHg 81%
    15:00 +2°C° 0 mm 0 m/s 689 mmHg 81%
    16:00 +1°C° 0 mm 0 m/s 689 mmHg 81%
    17:00 +1°C° 0 mm 1 m/s 689 mmHg 78%
    18:00 +1°C° 0 mm 1 m/s 690 mmHg 75%
    19:00 0°C° 0 mm 1 m/s 690 mmHg 72%
    20:00 0°C° 0 mm 1 m/s 690 mmHg 69%
    21:00 +1°C° 0 mm 1 m/s 690 mmHg 67%
    22:00 +1°C° 0 mm 1 m/s 690 mmHg 64%
    23:00 +1°C° 0 mm 1 m/s 690 mmHg 63%
    Arată mai mult